User: anonymous   Login
Location: Iola
(37.9240°N, 95.4000°W)
Time: 07:11:46
(UTC-06:00)
Language:

Meteor 2-10 Rocket - Orbit

View from above orbital plane
View from above orbital plane
View from above satellite
View from above satellite

Ground track
Ground track

The orbit data is extracted from the following two-line orbital elements,

1 14453U 83109B   17020.76160754  .00000043  00000-0  11568-4 0  9996
2 14453  81.1657 254.6069 0105728 129.8353 231.2189 14.24665583726536
Epoch (UTC): 20 January 2017 18:16:42
Eccentricity: 0.0105728
inclination: 81.1657°
perigee height: 733 km
apogee height: 885 km
right ascension of ascending node: 254.6069°
argument of perigee: 129.8353°
revolutions per day: 14.24665583
mean anomaly at epoch: 231.2189°
orbit number at epoch: 72653

The dashed part of the orbit path shows where the satellite is in the earth's shadow,  

DLR